Home > Weather > Ostermundigen > Past weeks

Flag for Switzerland Past Weather in Ostermundigen, Bern, Switzerland — Yesterday and Last 2 Weeks

Now
75 °F

Broken clouds.


Feels Like: 77 °F
Forecast: 49 / 75 °F
Wind: 6 mph from North

Location: Bern / Belp

Current Time: Jun 30, 2016 at 4:15:34 PM

Latest Report: Jun 30, 2016 at 3:50 PM


Visibility: N/A

Pressure: 30.04 "Hg (28.18 "Hg at 556m altitude)

Humidity: 65%

Dew Point: 63 °F

Location of OstermundigenLocation

Past Weather in Ostermundigen — Graph

°F

Ostermundigen Temperature Yesterday

Maximum temperature yesterday: 82 °F (at 5:20 PM)
Minimum temperature yesterday: 59 °F (at 12:20 AM)
Average temperature yesterday: 70 °F

High & Low Weather Summary for the Past Weeks

 TemperatureHumidityPressure
High91 °F (Jun 23, 5:20 PM)100% (Jun 15, 10:20 PM)30.27 "Hg (Jun 15, 10:20 PM)
Low48 °F (Jun 18, 5:50 AM)31% (Jun 24, 3:20 PM)29.59 "Hg (Jun 15, 4:50 PM)
Average64 °F80%30.07 "Hg
* Reported Jun 15 3:20 PM — Jun 30 3:20 PM, Ostermundigen, Weather by CustomWeather, © 2016

Note: Actual official high and low records may vary slightly from our data, if they occured in-between our weather recording intervals... More about our weather records

Advertising

Ostermundigen Weather History for the Previous 24 Hours

Scroll right to see more
 ConditionsComfort  
Time TempWeatherWind HumidityBarometerVisibility
3:20 PM
Thu, Jun 30
75 °FBroken clouds.7 mph61%30.04 "HgN/A
2:50 PM72 °FBroken clouds.6 mph69%30.04 "HgN/A
2:20 PM73 °FPartly sunny.8 mph69%30.04 "HgN/A
1:50 PM72 °FBroken clouds.5 mph73%30.04 "HgN/A
1:20 PM72 °FBroken clouds.5 mph73%30.04 "HgN/A
12:50 PM70 °FBroken clouds.6 mph73%30.04 "HgN/A
12:20 PM70 °FBroken clouds.3 mph73%30.04 "HgN/A
11:50 AM68 °FBroken clouds.3 mph78%30.04 "HgN/A
11:20 AM68 °FBroken clouds.3 mph83%30.04 "HgN/A
10:50 AM66 °FBroken clouds.2 mph88%30.04 "HgN/A
10:20 AM66 °FBroken clouds.1 mph83%30.04 "HgN/A
9:50 AM66 °FBroken clouds.1 mph83%30.04 "HgN/A
9:20 AM66 °FPartly sunny.3 mph83%30.04 "HgN/A
8:50 AM64 °FLight rain. Partly sunny.2 mph94%30.04 "HgN/A
8:20 AM64 °FBroken clouds.6 mph88%30.04 "HgN/A
7:50 AM63 °FBroken clouds.7 mph94%30.01 "HgN/A
7:20 AM63 °FBroken clouds.7 mph94%30.01 "HgN/A
6:50 AM63 °FBroken clouds.5 mph94%30.01 "HgN/A
6:20 AM63 °FPartly cloudy.2 mph100%30.01 "HgN/A
5:50 AM63 °FPassing clouds.2 mph100%30.01 "HgN/A
5:20 AM63 °FPartly cloudy.1 mph100%30.01 "Hg4 mi
4:50 AM63 °FPartly cloudy.3 mph100%30.01 "HgN/A
4:20 AM64 °FOvercast.2 mph94%30.01 "HgN/A
3:50 AM64 °FPartly cloudy.2 mph94%30.01 "HgN/A
3:20 AM64 °FPassing clouds.2 mph94%30.01 "Hg5 mi
2:50 AM64 °FLots of rain. Partly cloudy.7 mph94%30.01 "Hg6 mi
2:20 AM64 °FThunderstorms. Passing clouds.5 mph94%29.98 "HgN/A
1:20 AM64 °FHeavy rain. Passing clouds.1 mph100%29.98 "Hg3 mi
12:50 AM68 °FHeavy rain. Passing clouds.7 mph83%29.98 "Hg4 mi
12:20 AM68 °FThundershowers. Partly cloudy.9 mph83%29.95 "HgN/A
11:50 PM
Wed, Jun 29
68 °FPassing clouds.8 mph83%29.98 "HgN/A
11:20 PM66 °FThundershowers. Partly cloudy.2 mph88%29.95 "HgN/A
10:20 PM66 °FPassing clouds.1 mph88%29.95 "HgN/A
9:50 PM72 °FPassing clouds.1 mph73%29.95 "HgN/A
9:20 PM72 °FSunny.1 mph73%29.95 "Hg10 mi
8:50 PM75 °FSunny.7 mph61%29.95 "Hg10 mi
8:20 PM75 °FPassing clouds.6 mph61%29.92 "HgN/A
7:50 PM79 °FSunny.8 mph51%29.92 "Hg10 mi
7:20 PM79 °FSunny.8 mph54%29.92 "Hg10 mi
6:50 PM82 °FPassing clouds.8 mph42%29.92 "HgN/A
6:20 PM82 °FPassing clouds.8 mph45%29.92 "HgN/A
5:50 PM82 °FPassing clouds.10 mph42%29.92 "HgN/A
5:20 PM82 °FPassing clouds.8 mph42%29.92 "HgN/A
4:50 PM79 °FScattered clouds.2 mph51%29.95 "HgN/A
4:20 PM79 °FScattered clouds.5 mph54%29.95 "HgN/A
Weather by CustomWeather, © 2016

See weather overviewHow to use our weather pages